Weather in Pascani

Romania     47˚14′39″N   26˚43′22″E
temp.,
°C
wind,
m/s
gust,
m/s
humid.,
%
clouds,
%
prec.,
mm/h
press.,
hPa
HPBL,
m
18 january, mon
mon1823:00−7˚nw51191100 0.1 1019837
02:00−8˚nnw61289100 0.3 1019664
05:00−9˚nnw61190100 0.5 1019738
08:00−11˚nnw51286100 0.6 1020725
11:00−10˚nnw71275100 0.0 1022724
14:00−8˚nnw6107057 0.0 1021814
17:00−10˚nw36815 0.0 1022164
20:00−12˚wnw23864 0.0 102371
19 january, tue
tue1923:00−12˚wnw22877 0.0 102538
02:00−13˚wsw11884 0.0 102520
05:00−13˚sw11869 0.0 102420
08:00−13˚ssw118242 0.0 102421
11:00−8˚ssw226982 0.0 1024202
14:00−4˚ssw237066 0.0 1021306
17:00−7˚s338634 0.0 102145
20:00−7˚ssw228450 0.0 102122
20 january, wed
wed2023:00−7˚wsw127997 0.0 102121
02:00−6˚ssw127798 0.0 102022
05:00−5˚ssw2285100 0.0 101932
08:00−5˚s2385100 0.0 101827
11:00sw1273100 0.0 1018119
14:00+2˚s1276100 0.0 1018135
17:00−1˚s238486 0.0 101925
20:00−1˚s228667 0.0 102021
21 january, thu
thu2123:00−1˚sw228219 0.0 102022
02:00−1˚wsw228210 0.0 102022
05:00−2˚sw22820 0.0 101922
08:00−2˚ssw22830 0.0 102022
11:00+3˚ssw23800 0.0 1019117
14:00+6˚s24790 0.0 1018166
17:00+2˚s23850 0.0 101823
20:00+1˚ssw23877 0.0 101925
22 january, fri
fri2223:00+1˚ssw238381 0.0 101823
02:00+1˚ssw237973 0.0 101826
05:00+1˚ssw237595 0.0 101626
08:00ssw237472 0.0 101625
11:00+4˚s236874 0.0 1014107
14:00+6˚sse346887 0.0 1013127
17:00+2˚s338188 0.0 101224
20:00+2˚s338482 0.0 101126